Time,TemperatureF,DewpointF,PressureIn,WindDirection,WindDirectionDegrees,WindSpeedMPH,WindSpeedGustMPH,Humidity,HourlyPrecipIn,Conditions,Clouds,dailyrainin,SoftwareType,DateUTC
2013-01-23 00:00:00,41.2,37.3,30.28,East,100,0.0,0.0,86,0.00,,---,0.00,VWS V14.01,2013-01-23 05:00:00,
2013-01-23 00:02:00,41.2,37.3,30.28,East,100,0.0,0.0,86,0.00,,---,0.00,VWS V14.01,2013-01-23 05:02:00,
2013-01-23 00:03:00,41.1,37.5,30.28,East,100,0.0,0.0,87,0.00,,---,0.00,VWS V14.01,2013-01-23 05:03:00,
2013-01-23 00:04:00,41.1,37.5,30.28,East,100,0.0,0.0,87,0.00,,---,0.00,VWS V14.01,2013-01-23 05:04:00,
2013-01-23 00:09:00,40.9,37.3,30.28,East,100,0.0,0.0,87,0.00,,---,0.00,VWS V14.01,2013-01-23 05:09:00,
2013-01-23 00:14:00,40.7,37.1,30.28,East,100,0.0,0.0,87,0.00,,---,0.00,VWS V14.01,2013-01-23 05:14:00,
2013-01-23 00:19:00,40.5,36.9,30.28,East,100,0.0,0.0,87,0.00,,---,0.00,VWS V14.01,2013-01-23 05:19:00,
2013-01-23 00:24:00,40.3,36.8,30.28,East,100,0.0,0.0,87,0.00,,---,0.00,VWS V14.01,2013-01-23 05:24:00,
2013-01-23 00:29:00,40.2,36.9,30.28,East,100,0.0,0.0,88,0.00,,---,0.00,VWS V14.01,2013-01-23 05:29:00,
2013-01-23 00:30:00,40.2,36.9,30.28,East,100,0.0,0.0,88,0.00,,---,0.00,VWS V14.01,2013-01-23 05:30:00,
2013-01-23 00:34:00,40.2,37.2,30.28,East,100,0.0,0.0,89,0.00,,---,0.00,VWS V14.01,2013-01-23 05:34:00,
2013-01-23 00:39:00,40.4,37.7,30.28,East,100,0.0,0.0,90,0.00,,---,0.00,VWS V14.01,2013-01-23 05:39:00,
2013-01-23 00:44:00,40.6,37.6,30.28,East,100,0.0,0.0,89,0.00,,---,0.00,VWS V14.01,2013-01-23 05:44:00,
2013-01-23 00:49:00,40.6,37.6,30.28,East,100,0.0,0.0,89,0.00,,---,0.00,VWS V14.01,2013-01-23 05:49:00,
2013-01-23 00:54:00,40.7,37.7,30.28,East,100,0.0,0.0,89,0.00,,---,0.00,VWS V14.01,2013-01-23 05:54:00,
2013-01-23 00:59:00,40.7,37.4,30.28,East,100,0.0,0.0,88,0.00,,---,0.00,VWS V14.01,2013-01-23 05:59:00,
2013-01-23 01:00:00,40.7,37.4,30.28,East,100,0.0,0.0,88,0.00,,---,0.00,VWS V14.01,2013-01-23 06:00:00,
2013-01-23 01:04:00,40.6,37.3,30.28,East,100,0.0,0.0,88,0.00,,---,0.00,VWS V14.01,2013-01-23 06:04:00,
2013-01-23 01:09:00,40.6,37.3,30.28,East,100,0.0,0.0,88,0.00,,---,0.00,VWS V14.01,2013-01-23 06:09:00,
2013-01-23 01:14:00,40.5,37.2,30.28,East,100,0.0,0.0,88,0.00,,---,0.00,VWS V14.01,2013-01-23 06:14:00,
2013-01-23 01:19:00,40.5,37.2,30.28,East,100,0.0,0.0,88,0.00,,---,0.00,VWS V14.01,2013-01-23 06:19:00,
2013-01-23 01:24:00,40.4,37.1,30.28,East,100,0.0,0.0,88,0.00,,---,0.00,VWS V14.01,2013-01-23 06:24:00,
2013-01-23 01:29:00,40.3,36.8,30.28,East,100,0.0,1.0,87,0.00,,---,0.00,VWS V14.01,2013-01-23 06:29:00,
2013-01-23 01:30:00,40.3,36.8,30.28,East,100,0.0,1.0,87,0.00,,---,0.00,VWS V14.01,2013-01-23 06:30:00,
2013-01-23 01:34:00,40.2,36.9,30.28,East,100,0.0,0.0,88,0.00,,---,0.00,VWS V14.01,2013-01-23 06:34:00,
2013-01-23 01:39:00,40.2,36.7,30.28,East,100,0.0,0.0,87,0.00,,---,0.00,VWS V14.01,2013-01-23 06:39:00,
2013-01-23 01:44:00,40.1,36.5,30.28,East,100,0.0,0.0,87,0.00,,---,0.00,VWS V14.01,2013-01-23 06:44:00,
2013-01-23 01:49:00,40.0,36.5,30.28,East,100,0.0,0.0,87,0.00,,---,0.00,VWS V14.01,2013-01-23 06:49:00,
2013-01-23 01:54:00,39.9,36.3,30.28,East,100,0.0,0.0,87,0.00,,---,0.00,VWS V14.01,2013-01-23 06:54:00,
2013-01-23 01:59:00,39.8,36.2,30.28,East,100,0.0,0.0,87,0.00,,---,0.00,VWS V14.01,2013-01-23 06:59:00,
2013-01-23 02:00:00,39.8,36.2,30.28,East,100,0.0,0.0,87,0.00,,---,0.00,VWS V14.01,2013-01-23 07:00:00,
2013-01-23 02:04:00,39.7,36.2,30.28,East,100,0.0,0.0,87,0.00,,---,0.00,VWS V14.01,2013-01-23 07:04:00,
2013-01-23 02:09:00,39.6,36.1,30.28,East,100,0.0,1.0,87,0.00,,---,0.00,VWS V14.01,2013-01-23 07:09:00,
2013-01-23 02:14:00,39.7,35.9,30.28,East,100,0.0,2.0,86,0.00,,---,0.00,VWS V14.01,2013-01-23 07:14:00,
2013-01-23 02:19:00,40.4,36.0,30.28,East,100,0.0,2.0,84,0.00,,---,0.00,VWS V14.01,2013-01-23 07:19:00,
2013-01-23 02:24:00,40.6,35.8,30.28,East,100,0.0,2.0,83,0.00,,---,0.00,VWS V14.01,2013-01-23 07:24:00,
2013-01-23 02:30:00,40.6,35.5,30.28,East,100,0.0,2.0,82,0.00,,---,0.00,VWS V14.01,2013-01-23 07:30:00,
2013-01-23 02:35:00,40.5,35.5,30.28,East,100,0.0,0.0,82,0.00,,---,0.00,VWS V14.01,2013-01-23 07:35:00,
2013-01-23 02:40:00,40.3,35.2,30.29,East,100,0.0,0.0,82,0.00,,---,0.00,VWS V14.01,2013-01-23 07:40:00,
2013-01-23 02:45:00,40.0,35.0,30.29,East,100,0.0,0.0,82,0.00,,---,0.00,VWS V14.01,2013-01-23 07:45:00,
2013-01-23 02:50:00,40.0,35.0,30.29,East,97,0.0,2.0,82,0.00,,---,0.00,VWS V14.01,2013-01-23 07:50:00,
2013-01-23 02:55:00,40.0,35.0,30.29,East,97,0.0,2.0,82,0.00,,---,0.00,VWS V14.01,2013-01-23 07:55:00,
2013-01-23 03:00:00,40.1,34.8,30.29,East,96,0.0,2.0,81,0.00,,---,0.00,VWS V14.01,2013-01-23 08:00:00,
2013-01-23 03:05:00,40.2,34.5,30.29,East,96,0.0,0.0,80,0.00,,---,0.00,VWS V14.01,2013-01-23 08:05:00,
2013-01-23 03:10:00,40.2,34.5,30.29,East,96,0.0,0.0,80,0.00,,---,0.00,VWS V14.01,2013-01-23 08:10:00,
2013-01-23 03:15:00,40.0,34.3,30.29,East,96,0.0,0.0,80,0.00,,---,0.00,VWS V14.01,2013-01-23 08:15:00,
2013-01-23 03:20:00,39.8,34.1,30.29,East,96,0.0,0.0,80,0.00,,---,0.00,VWS V14.01,2013-01-23 08:20:00,
2013-01-23 03:25:00,39.7,34.0,30.29,East,96,0.0,0.0,80,0.00,,---,0.00,VWS V14.01,2013-01-23 08:25:00,
2013-01-23 03:30:00,39.6,34.0,30.29,East,96,0.0,0.0,80,0.00,,---,0.00,VWS V14.01,2013-01-23 08:30:00,
2013-01-23 03:35:00,39.5,33.8,30.30,East,96,0.0,0.0,80,0.00,,---,0.00,VWS V14.01,2013-01-23 08:35:00,
2013-01-23 03:40:00,39.4,33.4,30.30,East,96,0.0,0.0,79,0.00,,---,0.00,VWS V14.01,2013-01-23 08:40:00,
2013-01-23 03:46:00,39.4,33.4,30.30,East,96,0.0,0.0,79,0.00,,---,0.00,VWS V14.01,2013-01-23 08:46:00,
2013-01-23 03:51:00,39.4,33.1,30.30,East,96,2.0,2.0,78,0.00,,---,0.00,VWS V14.01,2013-01-23 08:51:00,
2013-01-23 03:56:00,39.6,33.3,30.30,East,96,1.0,2.0,78,0.00,,---,0.00,VWS V14.01,2013-01-23 08:56:00,
2013-01-23 04:00:00,38.9,32.0,30.30,East,96,0.0,1.0,76,0.00,,---,0.00,VWS V14.01,2013-01-23 09:00:00,
2013-01-23 04:02:00,39.7,33.1,30.30,East,96,0.0,2.0,77,0.00,,---,0.00,VWS V14.01,2013-01-23 09:02:00,
2013-01-23 04:07:00,39.8,33.2,30.30,East,96,0.0,2.0,77,0.00,,---,0.00,VWS V14.01,2013-01-23 09:07:00,
2013-01-23 04:12:00,39.8,32.9,30.30,East,96,0.0,2.0,76,0.00,,---,0.00,VWS V14.01,2013-01-23 09:12:00,
2013-01-23 04:17:00,39.7,32.8,30.31,East,96,0.0,2.0,76,0.00,,---,0.00,VWS V14.01,2013-01-23 09:17:00,
2013-01-23 04:22:00,39.6,32.7,30.31,East,96,0.0,2.0,76,0.00,,---,0.00,VWS V14.01,2013-01-23 09:22:00,
2013-01-23 04:27:00,39.5,32.6,30.30,East,96,2.0,2.0,76,0.00,,---,0.00,VWS V14.01,2013-01-23 09:27:00,
2013-01-23 04:30:00,39.7,32.4,30.31,East,96,0.0,2.0,75,0.00,,---,0.00,VWS V14.01,2013-01-23 09:30:00,
2013-01-23 04:32:00,39.7,32.4,30.31,East,96,0.0,0.0,75,0.00,,---,0.00,VWS V14.01,2013-01-23 09:32:00,
2013-01-23 04:37:00,39.7,32.4,30.31,East,96,0.0,0.0,75,0.00,,---,0.00,VWS V14.01,2013-01-23 09:37:00,
2013-01-23 04:42:00,39.8,32.5,30.31,East,96,0.0,1.0,75,0.00,,---,0.00,VWS V14.01,2013-01-23 09:42:00,
2013-01-23 04:47:00,39.7,32.4,30.30,East,96,0.0,1.0,75,0.00,,---,0.00,VWS V14.01,2013-01-23 09:47:00,
2013-01-23 04:52:00,39.3,32.4,30.30,East,96,0.0,1.0,76,0.00,,---,0.00,VWS V14.01,2013-01-23 09:52:00,
2013-01-23 04:57:00,39.1,32.2,30.30,East,96,0.0,1.0,76,0.00,,---,0.00,VWS V14.01,2013-01-23 09:57:00,
2013-01-23 05:00:00,38.9,32.0,30.30,East,96,0.0,1.0,76,0.00,,---,0.00,VWS V14.01,2013-01-23 10:00:00,
2013-01-23 05:02:00,38.8,32.2,30.30,East,96,0.0,0.0,77,0.00,,---,0.00,VWS V14.01,2013-01-23 10:02:00,
2013-01-23 05:08:00,38.6,32.0,30.30,East,96,0.0,0.0,77,0.00,,---,0.00,VWS V14.01,2013-01-23 10:08:00,
2013-01-23 05:14:00,38.3,32.0,30.30,East,96,0.0,0.0,78,0.00,,---,0.00,VWS V14.01,2013-01-23 10:14:00,
2013-01-23 05:19:00,38.0,31.8,30.30,East,96,0.0,0.0,78,0.00,,---,0.00,VWS V14.01,2013-01-23 10:19:00,
2013-01-23 05:24:00,37.7,31.8,30.31,East,96,0.0,0.0,79,0.00,,---,0.00,VWS V14.01,2013-01-23 10:24:00,
2013-01-23 05:29:00,37.5,31.6,30.31,East,96,0.0,1.0,79,0.00,,---,0.00,VWS V14.01,2013-01-23 10:29:00,
2013-01-23 05:30:00,37.5,31.6,30.31,East,96,0.0,1.0,79,0.00,,---,0.00,VWS V14.01,2013-01-23 10:30:00,
2013-01-23 05:34:00,37.4,31.5,30.31,East,96,0.0,0.0,79,0.00,,---,0.00,VWS V14.01,2013-01-23 10:34:00,
2013-01-23 05:39:00,37.3,31.7,30.31,East,96,0.0,0.0,80,0.00,,---,0.00,VWS V14.01,2013-01-23 10:39:00,
2013-01-23 05:44:00,37.4,31.8,30.31,East,96,0.0,0.0,80,0.00,,---,0.00,VWS V14.01,2013-01-23 10:44:00,
2013-01-23 05:49:00,37.4,32.1,30.31,East,96,0.0,0.0,81,0.00,,---,0.00,VWS V14.01,2013-01-23 10:49:00,
2013-01-23 05:54:00,37.3,32.0,30.32,East,96,0.0,0.0,81,0.00,,---,0.00,VWS V14.01,2013-01-23 10:54:00,
2013-01-23 05:59:00,37.0,31.7,30.32,East,96,0.0,0.0,81,0.00,,---,0.00,VWS V14.01,2013-01-23 10:59:00,
2013-01-23 06:00:00,37.0,31.7,30.32,East,96,0.0,0.0,81,0.00,,---,0.00,VWS V14.01,2013-01-23 11:00:00,
2013-01-23 06:04:00,36.7,31.7,30.32,East,96,0.0,0.0,82,0.00,,---,0.00,VWS V14.01,2013-01-23 11:04:00,
2013-01-23 06:09:00,36.5,31.8,30.32,East,96,0.0,0.0,83,0.00,,---,0.00,VWS V14.01,2013-01-23 11:09:00,
2013-01-23 06:14:00,36.3,31.6,30.32,East,96,0.0,0.0,83,0.00,,---,0.00,VWS V14.01,2013-01-23 11:14:00,
2013-01-23 06:19:00,36.1,31.5,30.32,East,96,0.0,0.0,83,0.00,,---,0.00,VWS V14.01,2013-01-23 11:19:00,
2013-01-23 06:24:00,35.9,31.5,30.32,East,96,0.0,0.0,84,0.00,,---,0.00,VWS V14.01,2013-01-23 11:24:00,
2013-01-23 06:29:00,35.6,31.2,30.32,East,96,0.0,0.0,84,0.00,,---,0.00,VWS V14.01,2013-01-23 11:29:00,
2013-01-23 06:30:00,35.6,31.2,30.32,East,96,0.0,0.0,84,0.00,,---,0.00,VWS V14.01,2013-01-23 11:30:00,
2013-01-23 06:34:00,35.4,31.1,30.33,East,96,0.0,0.0,84,0.00,,---,0.00,VWS V14.01,2013-01-23 11:34:00,
2013-01-23 06:39:00,35.1,31.0,30.33,East,96,0.0,0.0,85,0.00,,---,0.00,VWS V14.01,2013-01-23 11:39:00,
2013-01-23 06:44:00,34.8,30.8,30.33,East,96,0.0,0.0,85,0.00,,---,0.00,VWS V14.01,2013-01-23 11:44:00,
2013-01-23 06:49:00,34.6,31.1,30.33,East,96,0.0,0.0,87,0.00,,---,0.00,VWS V14.01,2013-01-23 11:49:00,
2013-01-23 06:55:00,34.3,31.1,30.33,East,96,0.0,0.0,88,0.00,,---,0.00,VWS V14.01,2013-01-23 11:55:00,
2013-01-23 07:00:00,34.2,31.0,30.33,East,96,0.0,0.0,88,0.00,,---,0.00,VWS V14.01,2013-01-23 12:00:00,
2013-01-23 07:05:00,34.0,30.5,30.33,East,96,0.0,0.0,87,0.00,,---,0.00,VWS V14.01,2013-01-23 12:05:00,
2013-01-23 07:10:00,33.7,30.2,30.33,East,96,0.0,0.0,87,0.00,,---,0.00,VWS V14.01,2013-01-23 12:10:00,
2013-01-23 07:15:00,33.4,30.2,30.33,East,96,0.0,0.0,88,0.00,,---,0.00,VWS V14.01,2013-01-23 12:15:00,
2013-01-23 07:20:00,33.0,29.8,30.33,East,96,0.0,0.0,88,0.00,,---,0.00,VWS V14.01,2013-01-23 12:20:00,
2013-01-23 07:25:00,32.8,29.9,30.34,East,96,0.0,0.0,89,0.00,,---,0.00,VWS V14.01,2013-01-23 12:25:00,
2013-01-23 07:30:00,32.6,29.7,30.34,East,96,0.0,0.0,89,0.00,,---,0.00,VWS V14.01,2013-01-23 12:30:00,
2013-01-23 07:35:00,32.5,29.6,30.34,East,96,0.0,0.0,89,0.00,,---,0.00,VWS V14.01,2013-01-23 12:35:00,
2013-01-23 07:40:00,32.4,29.5,30.34,East,96,0.0,0.0,89,0.00,,---,0.00,VWS V14.01,2013-01-23 12:40:00,
2013-01-23 07:45:00,32.5,29.9,30.34,East,96,0.0,0.0,90,0.00,,---,0.00,VWS V14.01,2013-01-23 12:45:00,
2013-01-23 07:50:00,32.6,30.3,30.34,East,96,0.0,0.0,91,0.00,,---,0.00,VWS V14.01,2013-01-23 12:50:00,
2013-01-23 07:55:00,33.0,30.9,30.34,East,96,0.0,0.0,92,0.00,,---,0.00,VWS V14.01,2013-01-23 12:55:00,
2013-01-23 08:00:00,33.3,31.2,30.34,East,96,0.0,0.0,92,0.00,,---,0.00,VWS V14.01,2013-01-23 13:00:00,
2013-01-23 08:05:00,33.7,31.9,30.34,East,96,0.0,0.0,93,0.00,,---,0.00,VWS V14.01,2013-01-23 13:05:00,
2013-01-23 08:10:00,34.3,32.5,30.34,East,96,0.0,0.0,93,0.00,,---,0.00,VWS V14.01,2013-01-23 13:10:00,
2013-01-23 08:15:00,35.1,33.3,30.35,East,96,0.0,0.0,93,0.00,,---,0.00,VWS V14.01,2013-01-23 13:15:00,
2013-01-23 08:20:00,36.3,34.5,30.35,East,96,0.0,1.0,93,0.00,,---,0.00,VWS V14.01,2013-01-23 13:20:00,
2013-01-23 08:30:00,51.7,39.5,30.36,East,90,0.0,3.0,63,0.00,,---,0.00,VWS V14.01,2013-01-23 13:30:00,
2013-01-23 08:32:00,39.9,36.6,30.35,East,96,0.0,0.0,88,0.00,,---,0.00,VWS V14.01,2013-01-23 13:32:00,
2013-01-23 08:37:00,41.2,37.3,30.35,East,96,0.0,1.0,86,0.00,,---,0.00,VWS V14.01,2013-01-23 13:37:00,
2013-01-23 08:42:00,42.5,38.0,30.35,East,96,2.0,2.0,84,0.00,,---,0.00,VWS V14.01,2013-01-23 13:42:00,
2013-01-23 08:47:00,43.7,38.3,30.35,East,96,0.0,2.0,81,0.00,,---,0.00,VWS V14.01,2013-01-23 13:47:00,
2013-01-23 08:52:00,44.9,38.8,30.35,East,96,2.0,3.0,79,0.00,,---,0.00,VWS V14.01,2013-01-23 13:52:00,
2013-01-23 08:57:00,45.8,39.0,30.35,East,91,3.0,5.0,77,0.00,,---,0.00,VWS V14.01,2013-01-23 13:57:00,
2013-01-23 09:00:00,46.3,39.2,30.35,East,90,1.0,5.0,76,0.00,,---,0.00,VWS V14.01,2013-01-23 14:00:00,
2013-01-23 09:02:00,46.6,39.8,30.35,East,90,0.0,2.0,77,0.00,,---,0.00,VWS V14.01,2013-01-23 14:02:00,
2013-01-23 09:07:00,47.4,39.5,30.35,East,90,0.0,2.0,74,0.00,,---,0.00,VWS V14.01,2013-01-23 14:07:00,
2013-01-23 09:12:00,48.4,40.5,30.36,East,90,1.0,3.0,74,0.00,,---,0.00,VWS V14.01,2013-01-23 14:12:00,
2013-01-23 09:17:00,49.3,40.3,30.36,East,90,2.0,3.0,71,0.00,,---,0.00,VWS V14.01,2013-01-23 14:17:00,
2013-01-23 09:22:00,50.3,40.5,30.36,East,90,1.0,3.0,69,0.00,,---,0.00,VWS V14.01,2013-01-23 14:22:00,
2013-01-23 09:27:00,51.3,40.0,30.36,East,90,1.0,3.0,65,0.00,,---,0.00,VWS V14.01,2013-01-23 14:27:00,
2013-01-23 09:30:00,51.7,39.5,30.36,East,90,0.0,3.0,63,0.00,,---,0.00,VWS V14.01,2013-01-23 14:30:00,
2013-01-23 09:32:00,52.1,39.5,30.36,East,90,0.0,3.0,62,0.00,,---,0.00,VWS V14.01,2013-01-23 14:32:00,
2013-01-23 09:37:00,52.8,39.7,30.36,East,88,0.0,5.0,61,0.00,,---,0.00,VWS V14.01,2013-01-23 14:37:00,
2013-01-23 09:42:00,53.7,39.3,30.37,East,88,3.0,5.0,58,0.00,,---,0.00,VWS V14.01,2013-01-23 14:42:00,
2013-01-23 09:47:00,54.5,39.1,30.37,East,86,3.0,5.0,56,0.00,,---,0.00,VWS V14.01,2013-01-23 14:47:00,
2013-01-23 09:52:00,55.3,37.5,30.37,ENE,57,5.0,6.0,51,0.00,,---,0.00,VWS V14.01,2013-01-23 14:52:00,
2013-01-23 09:57:00,55.7,36.3,30.37,ENE,59,5.0,7.0,48,0.00,,---,0.00,VWS V14.01,2013-01-23 14:57:00,
2013-01-23 10:00:00,56.0,36.6,30.37,NE,37,3.0,7.0,48,0.00,,---,0.00,VWS V14.01,2013-01-23 15:00:00,
2013-01-23 10:02:00,56.4,35.9,30.37,ENE,64,4.0,7.0,46,0.00,,---,0.00,VWS V14.01,2013-01-23 15:02:00,
2013-01-23 10:08:00,56.9,35.8,30.37,ENE,61,7.0,7.0,45,0.00,,---,0.00,VWS V14.01,2013-01-23 15:08:00,
2013-01-23 10:13:00,57.4,36.8,30.37,ENE,63,4.0,7.0,46,0.00,,---,0.00,VWS V14.01,2013-01-23 15:13:00,
2013-01-23 10:18:00,57.7,36.0,30.37,ENE,62,3.0,8.0,44,0.00,,---,0.00,VWS V14.01,2013-01-23 15:18:00,
2013-01-23 10:23:00,58.1,36.9,30.38,NE,42,1.0,8.0,45,0.00,,---,0.00,VWS V14.01,2013-01-23 15:23:00,
2013-01-23 10:28:00,58.7,35.7,30.38,NE,46,4.0,8.0,42,0.00,,---,0.00,VWS V14.01,2013-01-23 15:28:00,
2013-01-23 10:30:00,59.0,34.7,30.38,North,5,3.0,8.0,40,0.00,,---,0.00,VWS V14.01,2013-01-23 15:30:00,
2013-01-23 10:33:00,59.3,35.0,30.38,North,360,6.0,6.0,40,0.00,,---,0.00,VWS V14.01,2013-01-23 15:33:00,
2013-01-23 10:38:00,59.8,34.8,30.38,ENE,57,2.0,7.0,39,0.00,,---,0.00,VWS V14.01,2013-01-23 15:38:00,
2013-01-23 10:43:00,60.3,35.3,30.38,NNE,21,4.0,8.0,39,0.00,,---,0.00,VWS V14.01,2013-01-23 15:43:00,
2013-01-23 10:48:00,60.4,34.7,30.37,NE,51,3.0,8.0,38,0.00,,---,0.00,VWS V14.01,2013-01-23 15:48:00,
2013-01-23 10:53:00,60.3,35.3,30.37,NE,50,4.0,11.0,39,0.00,,---,0.00,VWS V14.01,2013-01-23 15:53:00,
2013-01-23 10:58:00,60.9,35.8,30.37,NNE,17,11.0,12.0,39,0.00,,---,0.00,VWS V14.01,2013-01-23 15:58:00,
2013-01-23 11:00:00,61.1,35.3,30.37,NNW,337,7.0,12.0,38,0.00,,---,0.00,VWS V14.01,2013-01-23 16:00:00,
2013-01-23 11:03:00,61.1,34.7,30.37,NNE,13,7.0,7.0,37,0.00,,---,0.00,VWS V14.01,2013-01-23 16:03:00,
2013-01-23 11:08:00,60.9,35.8,30.37,NNE,17,3.0,9.0,39,0.00,,---,0.00,VWS V14.01,2013-01-23 16:08:00,
2013-01-23 11:13:00,61.0,35.9,30.37,NE,40,3.0,9.0,39,0.00,,---,0.00,VWS V14.01,2013-01-23 16:13:00,
2013-01-23 11:18:00,61.2,35.4,30.37,NE,53,5.0,10.0,38,0.00,,---,0.00,VWS V14.01,2013-01-23 16:18:00,
2013-01-23 11:23:00,60.8,36.3,30.37,NE,56,2.0,13.0,40,0.00,,---,0.00,VWS V14.01,2013-01-23 16:23:00,
2013-01-23 11:28:00,60.7,36.9,30.36,NE,38,3.0,13.0,41,0.00,,---,0.00,VWS V14.01,2013-01-23 16:28:00,
2013-01-23 11:30:00,60.8,37.0,30.36,ENE,63,4.0,13.0,41,0.00,,---,0.00,VWS V14.01,2013-01-23 16:30:00,
2013-01-23 11:33:00,61.0,35.9,30.36,NNE,20,5.0,9.0,39,0.00,,---,0.00,VWS V14.01,2013-01-23 16:33:00,
2013-01-23 11:38:00,61.3,35.5,30.35,NNE,26,5.0,9.0,38,0.00,,---,0.00,VWS V14.01,2013-01-23 16:38:00,
2013-01-23 11:43:00,61.8,35.3,30.35,ENE,59,4.0,9.0,37,0.00,,---,0.00,VWS V14.01,2013-01-23 16:43:00,
2013-01-23 11:48:00,62.0,34.8,30.36,NE,35,1.0,9.0,36,0.00,,---,0.00,VWS V14.01,2013-01-23 16:48:00,
2013-01-23 11:53:00,62.0,35.5,30.35,NE,53,4.0,9.0,37,0.00,,---,0.00,VWS V14.01,2013-01-23 16:53:00,
2013-01-23 11:58:00,62.4,35.1,30.35,NNE,12,2.0,9.0,36,0.00,,---,0.00,VWS V14.01,2013-01-23 16:58:00,
2013-01-23 12:00:00,62.5,34.5,30.35,North,360,5.0,9.0,35,0.00,,---,0.00,VWS V14.01,2013-01-23 17:00:00,
2013-01-23 12:03:00,62.5,34.5,30.35,ENE,60,7.0,8.0,35,0.00,,---,0.00,VWS V14.01,2013-01-23 17:03:00,
2013-01-23 12:09:00,62.4,34.4,30.35,ENE,63,5.0,9.0,35,0.00,,---,0.00,VWS V14.01,2013-01-23 17:09:00,
2013-01-23 12:14:00,62.6,35.3,30.34,ENE,60,0.0,9.0,36,0.00,,---,0.00,VWS V14.01,2013-01-23 17:14:00,
2013-01-23 12:19:00,62.7,34.0,30.34,NE,52,1.0,10.0,34,0.00,,---,0.00,VWS V14.01,2013-01-23 17:19:00,
2013-01-23 12:24:00,62.8,35.5,30.34,ESE,112,2.0,10.0,36,0.00,,---,0.00,VWS V14.01,2013-01-23 17:24:00,
2013-01-23 12:29:00,63.2,34.4,30.34,NNW,342,2.0,10.0,34,0.00,,---,0.00,VWS V14.01,2013-01-23 17:29:00,
2013-01-23 12:30:00,63.2,34.4,30.34,East,84,3.0,10.0,34,0.00,,---,0.00,VWS V14.01,2013-01-23 17:30:00,
2013-01-23 12:34:00,63.2,34.4,30.33,NNE,24,2.0,5.0,34,0.00,,---,0.00,VWS V14.01,2013-01-23 17:34:00,
2013-01-23 12:39:00,63.5,33.9,30.33,ENE,57,7.0,9.0,33,0.00,,---,0.00,VWS V14.01,2013-01-23 17:39:00,
2013-01-23 12:44:00,63.8,34.9,30.33,NE,36,2.0,9.0,34,0.00,,---,0.00,VWS V14.01,2013-01-23 17:44:00,
2013-01-23 12:49:00,64.0,35.8,30.32,NE,36,2.0,9.0,35,0.00,,---,0.00,VWS V14.01,2013-01-23 17:49:00,
2013-01-23 12:58:00,64.4,34.7,30.32,NNE,12,0.0,0.0,33,0.00,,---,0.00,VWS V14.01,2013-01-23 17:58:00,
2013-01-23 13:00:00,64.4,33.9,30.32,East,80,0.0,5.0,32,0.00,,---,0.00,VWS V14.01,2013-01-23 18:00:00,
2013-01-23 13:03:00,64.5,34.8,30.31,NNW,344,2.0,5.0,33,0.00,,---,0.00,VWS V14.01,2013-01-23 18:03:00,
2013-01-23 13:08:00,64.5,33.2,30.31,North,351,6.0,6.0,31,0.00,,---,0.00,VWS V14.01,2013-01-23 18:08:00,
2013-01-23 13:13:00,64.6,34.9,30.31,NNE,17,2.0,7.0,33,0.00,,---,0.00,VWS V14.01,2013-01-23 18:13:00,
2013-01-23 13:18:00,64.7,35.7,30.31,ESE,119,3.0,7.0,34,0.00,,---,0.00,VWS V14.01,2013-01-23 18:18:00,
2013-01-23 13:23:00,65.0,35.2,30.30,NE,51,2.0,7.0,33,0.00,,---,0.00,VWS V14.01,2013-01-23 18:23:00,
2013-01-23 13:28:00,65.5,33.3,30.30,NNW,336,3.0,8.0,30,0.00,,---,0.00,VWS V14.01,2013-01-23 18:28:00,
2013-01-23 13:30:00,65.3,32.3,30.30,NW,309,2.0,8.0,29,0.00,,---,0.00,VWS V14.01,2013-01-23 18:30:00,
2013-01-23 13:33:00,65.0,32.8,30.30,NW,309,0.0,3.0,30,0.00,,---,0.00,VWS V14.01,2013-01-23 18:33:00,
2013-01-23 13:38:00,65.1,33.7,30.30,East,96,2.0,8.0,31,0.00,,---,0.00,VWS V14.01,2013-01-23 18:38:00,
2013-01-23 13:43:00,65.1,33.7,30.29,SE,127,1.0,8.0,31,0.00,,---,0.00,VWS V14.01,2013-01-23 18:43:00,
2013-01-23 13:48:00,65.7,34.3,30.29,WNW,290,1.0,8.0,31,0.00,,---,0.00,VWS V14.01,2013-01-23 18:48:00,
2013-01-23 13:53:00,65.9,33.6,30.29,NNE,26,6.0,8.0,30,0.00,,---,0.00,VWS V14.01,2013-01-23 18:53:00,
2013-01-23 13:58:00,66.1,33.8,30.29,NNW,346,2.0,8.0,30,0.00,,---,0.00,VWS V14.01,2013-01-23 18:58:00,
2013-01-23 14:00:00,66.1,33.0,30.29,NE,46,2.0,8.0,29,0.00,,---,0.00,VWS V14.01,2013-01-23 19:00:00,
2013-01-23 14:03:00,66.2,33.9,30.28,NNE,23,1.0,2.0,30,0.00,,---,0.00,VWS V14.01,2013-01-23 19:03:00,
2013-01-23 14:08:00,66.5,34.1,30.28,ENE,70,1.0,3.0,30,0.00,,---,0.00,VWS V14.01,2013-01-23 19:08:00,
2013-01-23 14:13:00,66.4,34.9,30.28,ESE,118,4.0,5.0,31,0.00,,---,0.00,VWS V14.01,2013-01-23 19:13:00,
2013-01-23 14:18:00,66.4,34.0,30.27,East,91,2.0,7.0,30,0.00,,---,0.00,VWS V14.01,2013-01-23 19:18:00,
2013-01-23 14:23:00,66.9,35.3,30.27,ESE,119,3.0,7.0,31,0.00,,---,0.00,VWS V14.01,2013-01-23 19:23:00,
2013-01-23 14:28:00,66.5,35.8,30.27,SE,139,2.0,7.0,32,0.00,,---,0.00,VWS V14.01,2013-01-23 19:28:00,
2013-01-23 14:30:00,66.4,36.5,30.27,SE,139,4.0,7.0,33,0.00,,---,0.00,VWS V14.01,2013-01-23 19:30:00,
2013-01-23 14:33:00,66.3,34.8,30.27,SSE,149,2.0,5.0,31,0.00,,---,0.00,VWS V14.01,2013-01-23 19:33:00,
2013-01-23 14:38:00,66.4,34.9,30.27,SE,139,1.0,5.0,31,0.00,,---,0.00,VWS V14.01,2013-01-23 19:38:00,
2013-01-23 14:43:00,67.2,37.2,30.27,NW,312,6.0,8.0,33,0.00,,---,0.00,VWS V14.01,2013-01-23 19:43:00,
2013-01-23 14:48:00,67.2,36.4,30.27,NNW,343,3.0,8.0,32,0.00,,---,0.00,VWS V14.01,2013-01-23 19:48:00,
2013-01-23 14:53:00,67.3,34.8,30.27,NNW,336,0.0,8.0,30,0.00,,---,0.00,VWS V14.01,2013-01-23 19:53:00,
2013-01-23 14:58:00,67.6,33.4,30.27,ENE,65,5.0,8.0,28,0.00,,---,0.00,VWS V14.01,2013-01-23 19:58:00,
2013-01-23 15:00:00,67.6,33.4,30.27,ENE,57,4.0,9.0,28,0.00,,---,0.00,VWS V14.01,2013-01-23 20:00:00,
2013-01-23 15:03:00,67.6,34.2,30.27,North,355,3.0,6.0,29,0.00,,---,0.00,VWS V14.01,2013-01-23 20:03:00,
2013-01-23 15:08:00,68.0,32.8,30.27,North,5,2.0,6.0,27,0.00,,---,0.00,VWS V14.01,2013-01-23 20:08:00,
2013-01-23 15:13:00,68.2,35.6,30.27,SSE,161,1.0,6.0,30,0.00,,---,0.00,VWS V14.01,2013-01-23 20:13:00,
2013-01-23 15:19:00,67.7,38.3,30.27,SW,215,2.0,6.0,34,0.00,,---,0.00,VWS V14.01,2013-01-23 20:19:00,
2013-01-23 15:24:00,67.2,37.9,30.27,SSE,163,3.0,7.0,34,0.00,,---,0.00,VWS V14.01,2013-01-23 20:24:00,
2013-01-23 15:29:00,67.0,38.5,30.27,South,175,3.0,7.0,35,0.00,,---,0.00,VWS V14.01,2013-01-23 20:29:00,
2013-01-23 15:30:00,67.0,38.5,30.27,SSW,207,5.0,7.0,35,0.00,,---,0.00,VWS V14.01,2013-01-23 20:30:00,
2013-01-23 15:51:00,66.2,38.5,30.27,South,182,3.0,4.0,36,0.00,,---,0.00,VWS V14.01,2013-01-23 20:51:00,
2013-01-23 15:56:00,65.9,37.5,30.27,South,183,2.0,6.0,35,0.00,,---,0.00,VWS V14.01,2013-01-23 20:56:00,
2013-01-23 16:00:00,65.8,37.4,30.27,South,174,3.0,6.0,35,0.00,,---,0.00,VWS V14.01,2013-01-23 21:00:00,
2013-01-23 16:01:00,65.8,37.4,30.27,South,174,2.0,3.0,35,0.00,,---,0.00,VWS V14.01,2013-01-23 21:01:00,
2013-01-23 16:06:00,65.7,37.3,30.27,SE,140,3.0,4.0,35,0.00,,---,0.00,VWS V14.01,2013-01-23 21:06:00,
2013-01-23 16:11:00,65.9,36.0,30.27,SE,146,2.0,5.0,33,0.00,,---,0.00,VWS V14.01,2013-01-23 21:11:00,
2013-01-23 16:16:00,65.9,35.2,30.28,SSE,150,2.0,5.0,32,0.00,,---,0.00,VWS V14.01,2013-01-23 21:16:00,
2013-01-23 16:21:00,65.7,36.6,30.28,SSE,150,1.0,5.0,34,0.00,,---,0.00,VWS V14.01,2013-01-23 21:21:00,
2013-01-23 16:26:00,65.6,37.2,30.28,SE,146,2.0,5.0,35,0.00,,---,0.00,VWS V14.01,2013-01-23 21:26:00,
2013-01-23 16:30:00,65.6,38.0,30.28,SE,146,2.0,5.0,36,0.00,,---,0.00,VWS V14.01,2013-01-23 21:30:00,
2013-01-23 16:31:00,65.5,36.4,30.28,SE,146,2.0,4.0,34,0.00,,---,0.00,VWS V14.01,2013-01-23 21:31:00,
2013-01-23 16:36:00,65.6,38.0,30.28,SE,146,2.0,4.0,36,0.00,,---,0.00,VWS V14.01,2013-01-23 21:36:00,
2013-01-23 16:41:00,65.6,38.0,30.28,SE,146,1.0,4.0,36,0.00,,---,0.00,VWS V14.01,2013-01-23 21:41:00,
2013-01-23 16:46:00,65.5,36.4,30.28,SE,146,0.0,4.0,34,0.00,,---,0.00,VWS V14.01,2013-01-23 21:46:00,
2013-01-23 16:51:00,65.4,37.1,30.28,SE,146,1.0,4.0,35,0.00,,---,0.00,VWS V14.01,2013-01-23 21:51:00,
2013-01-23 16:57:00,65.3,37.7,30.28,SE,146,2.0,4.0,36,0.00,,---,0.00,VWS V14.01,2013-01-23 21:57:00,
2013-01-23 17:00:00,65.2,38.3,30.28,SE,146,1.0,4.0,37,0.00,,---,0.00,VWS V14.01,2013-01-23 22:00:00,
2013-01-23 17:02:00,65.2,38.3,30.28,SE,146,0.0,1.0,37,0.00,,---,0.00,VWS V14.01,2013-01-23 22:02:00,
2013-01-23 17:07:00,65.1,38.2,30.28,SE,146,0.0,2.0,37,0.00,,---,0.00,VWS V14.01,2013-01-23 22:07:00,
2013-01-23 17:12:00,65.1,38.2,30.28,SE,146,0.0,2.0,37,0.00,,---,0.00,VWS V14.01,2013-01-23 22:12:00,
2013-01-23 17:17:00,65.1,39.5,30.28,SE,146,0.0,2.0,39,0.00,,---,0.00,VWS V14.01,2013-01-23 22:17:00,
2013-01-23 17:22:00,64.9,39.4,30.28,SE,146,0.0,2.0,39,0.00,,---,0.00,VWS V14.01,2013-01-23 22:22:00,
2013-01-23 17:27:00,64.8,38.6,30.29,SE,146,0.0,2.0,38,0.00,,---,0.00,VWS V14.01,2013-01-23 22:27:00,
2013-01-23 17:30:00,64.8,39.3,30.29,SE,146,0.0,2.0,39,0.00,,---,0.00,VWS V14.01,2013-01-23 22:30:00,
2013-01-23 17:32:00,64.7,39.8,30.29,SE,146,0.0,0.0,40,0.00,,---,0.00,VWS V14.01,2013-01-23 22:32:00,
2013-01-23 17:37:00,64.0,39.2,30.29,SE,146,0.0,0.0,40,0.00,,---,0.00,VWS V14.01,2013-01-23 22:37:00,
2013-01-23 17:42:00,63.0,38.3,30.29,SE,146,0.0,1.0,40,0.00,,---,0.00,VWS V14.01,2013-01-23 22:42:00,
2013-01-23 17:47:00,62.1,38.1,30.29,SE,146,0.0,1.0,41,0.00,,---,0.00,VWS V14.01,2013-01-23 22:47:00,
2013-01-23 17:52:00,61.2,39.1,30.29,SE,146,0.0,1.0,44,0.00,,---,0.00,VWS V14.01,2013-01-23 22:52:00,
2013-01-23 17:57:00,60.0,39.2,30.29,SE,146,0.0,1.0,46,0.00,,---,0.00,VWS V14.01,2013-01-23 22:57:00,
2013-01-23 18:00:00,59.3,39.1,30.29,SE,146,0.0,1.0,47,0.00,,---,0.00,VWS V14.01,2013-01-23 23:00:00,
2013-01-23 18:02:00,58.9,39.3,30.29,SE,146,0.0,0.0,48,0.00,,---,0.00,VWS V14.01,2013-01-23 23:02:00,
2013-01-23 18:07:00,58.2,38.1,30.29,SE,146,1.0,1.0,47,0.00,,---,0.00,VWS V14.01,2013-01-23 23:07:00,
2013-01-23 18:12:00,57.6,38.6,30.29,SE,146,0.0,1.0,49,0.00,,---,0.00,VWS V14.01,2013-01-23 23:12:00,
2013-01-23 18:17:00,56.8,38.4,30.29,SE,146,0.0,1.0,50,0.00,,---,0.00,VWS V14.01,2013-01-23 23:17:00,
2013-01-23 18:24:00,55.9,38.0,30.29,SE,146,0.0,1.0,51,0.00,,---,0.00,VWS V14.01,2013-01-23 23:24:00,
2013-01-23 18:30:00,54.7,38.4,30.29,SE,146,0.0,0.0,54,0.00,,---,0.00,VWS V14.01,2013-01-23 23:30:00,
2013-01-23 18:35:00,54.1,37.8,30.29,SE,146,0.0,0.0,54,0.00,,---,0.00,VWS V14.01,2013-01-23 23:35:00,
2013-01-23 18:40:00,53.5,38.2,30.29,SE,146,0.0,2.0,56,0.00,,---,0.00,VWS V14.01,2013-01-23 23:40:00,
2013-01-23 18:45:00,53.2,37.9,30.29,SE,146,0.0,2.0,56,0.00,,---,0.00,VWS V14.01,2013-01-23 23:45:00,
2013-01-23 18:50:00,52.8,38.5,30.29,SE,146,0.0,2.0,58,0.00,,---,0.00,VWS V14.01,2013-01-23 23:50:00,
2013-01-23 18:55:00,52.2,37.9,30.29,SE,146,0.0,2.0,58,0.00,,---,0.00,VWS V14.01,2013-01-23 23:55:00,
2013-01-23 19:00:00,51.6,37.8,30.29,SE,146,0.0,2.0,59,0.00,,---,0.00,VWS V14.01,2013-01-24 00:00:00,
2013-01-23 19:05:00,51.2,37.8,30.30,SE,146,0.0,0.0,60,0.00,,---,0.00,VWS V14.01,2013-01-24 00:05:00,
2013-01-23 19:10:00,50.8,37.8,30.30,SE,146,0.0,0.0,61,0.00,,---,0.00,VWS V14.01,2013-01-24 00:10:00,
2013-01-23 19:15:00,50.4,38.3,30.30,SE,146,0.0,0.0,63,0.00,,---,0.00,VWS V14.01,2013-01-24 00:15:00,
2013-01-23 19:20:00,50.1,38.0,30.29,SE,146,0.0,0.0,63,0.00,,---,0.00,VWS V14.01,2013-01-24 00:20:00,
2013-01-23 19:25:00,49.8,38.1,30.30,SE,146,0.0,0.0,64,0.00,,---,0.00,VWS V14.01,2013-01-24 00:25:00,
2013-01-23 19:30:00,49.5,37.4,30.29,SE,146,0.0,0.0,63,0.00,,---,0.00,VWS V14.01,2013-01-24 00:30:00,
2013-01-23 19:40:00,48.8,38.0,30.29,SE,146,0.0,0.0,66,0.00,,---,0.00,VWS V14.01,2013-01-24 00:40:00,
2013-01-23 19:46:00,48.6,37.8,30.29,SE,146,0.0,0.0,66,0.00,,---,0.00,VWS V14.01,2013-01-24 00:46:00,
2013-01-23 19:51:00,48.5,38.1,30.29,SE,146,0.0,0.0,67,0.00,,---,0.00,VWS V14.01,2013-01-24 00:51:00,
2013-01-23 19:56:00,48.4,38.3,30.29,SE,146,0.0,0.0,68,0.00,,---,0.00,VWS V14.01,2013-01-24 00:56:00,
2013-01-23 20:00:00,48.3,37.9,30.29,SE,146,0.0,0.0,67,0.00,,---,0.00,VWS V14.01,2013-01-24 01:00:00,
2013-01-23 20:01:00,48.3,37.9,30.29,SE,146,0.0,0.0,67,0.00,,---,0.00,VWS V14.01,2013-01-24 01:01:00,
2013-01-23 20:06:00,48.2,38.2,30.29,SE,146,0.0,0.0,68,0.00,,---,0.00,VWS V14.01,2013-01-24 01:06:00,
2013-01-23 20:11:00,48.0,37.6,30.29,SE,146,0.0,0.0,67,0.00,,---,0.00,VWS V14.01,2013-01-24 01:11:00,
2013-01-23 20:16:00,47.8,37.8,30.29,SE,146,0.0,0.0,68,0.00,,---,0.00,VWS V14.01,2013-01-24 01:16:00,
2013-01-23 20:21:00,47.3,38.4,30.29,SE,146,0.0,0.0,71,0.00,,---,0.00,VWS V14.01,2013-01-24 01:21:00,
2013-01-23 20:26:00,47.1,38.5,30.29,SE,146,0.0,0.0,72,0.00,,---,0.00,VWS V14.01,2013-01-24 01:26:00,
2013-01-23 20:30:00,46.8,37.2,30.29,SE,146,0.0,0.0,69,0.00,,---,0.00,VWS V14.01,2013-01-24 01:30:00,
2013-01-23 20:31:00,46.8,37.2,30.30,SE,146,0.0,0.0,69,0.00,,---,0.00,VWS V14.01,2013-01-24 01:31:00,
2013-01-23 20:36:00,46.4,36.8,30.29,SE,146,0.0,0.0,69,0.00,,---,0.00,VWS V14.01,2013-01-24 01:36:00,
2013-01-23 20:42:00,46.0,36.8,30.29,SE,146,0.0,0.0,70,0.00,,---,0.00,VWS V14.01,2013-01-24 01:42:00,
2013-01-23 20:48:00,45.2,36.7,30.29,SE,146,0.0,0.0,72,0.00,,---,0.00,VWS V14.01,2013-01-24 01:48:00,
2013-01-23 20:53:00,44.7,36.2,30.29,SE,146,0.0,0.0,72,0.00,,---,0.00,VWS V14.01,2013-01-24 01:53:00,
2013-01-23 20:58:00,44.4,36.7,30.29,SE,146,0.0,0.0,74,0.00,,---,0.00,VWS V14.01,2013-01-24 01:58:00,
2013-01-23 21:00:00,44.3,36.5,30.29,SE,146,0.0,0.0,74,0.00,,---,0.00,VWS V14.01,2013-01-24 02:00:00,
2013-01-23 21:03:00,44.2,36.8,30.29,SE,146,0.0,0.0,75,0.00,,---,0.00,VWS V14.01,2013-01-24 02:03:00,
2013-01-23 21:08:00,44.1,36.7,30.29,SE,146,0.0,0.0,75,0.00,,---,0.00,VWS V14.01,2013-01-24 02:08:00,
2013-01-23 21:13:00,44.0,36.9,30.29,SE,146,0.0,0.0,76,0.00,,---,0.00,VWS V14.01,2013-01-24 02:13:00,
2013-01-23 21:18:00,43.8,36.7,30.30,SE,146,0.0,0.0,76,0.00,,---,0.00,VWS V14.01,2013-01-24 02:18:00,
2013-01-23 21:23:00,43.7,36.6,30.30,SE,146,0.0,0.0,76,0.00,,---,0.00,VWS V14.01,2013-01-24 02:23:00,
2013-01-23 21:28:00,43.7,37.0,30.30,SE,146,0.0,0.0,77,0.00,,---,0.00,VWS V14.01,2013-01-24 02:28:00,
2013-01-23 21:30:00,43.6,36.9,30.30,SE,146,0.0,0.0,77,0.00,,---,0.00,VWS V14.01,2013-01-24 02:30:00,
2013-01-23 21:33:00,43.6,36.9,30.30,SE,146,0.0,0.0,77,0.00,,---,0.00,VWS V14.01,2013-01-24 02:33:00,
2013-01-23 21:38:00,43.5,36.8,30.30,SE,146,0.0,0.0,77,0.00,,---,0.00,VWS V14.01,2013-01-24 02:38:00,
2013-01-23 21:43:00,43.3,36.6,30.30,SE,146,0.0,0.0,77,0.00,,---,0.00,VWS V14.01,2013-01-24 02:43:00,
2013-01-23 21:48:00,43.1,36.7,30.30,SE,146,0.0,0.0,78,0.00,,---,0.00,VWS V14.01,2013-01-24 02:48:00,
2013-01-23 21:54:00,43.0,36.6,30.30,SE,146,0.0,0.0,78,0.00,,---,0.00,VWS V14.01,2013-01-24 02:54:00,
2013-01-23 21:59:00,42.9,36.8,30.30,SE,146,0.0,0.0,79,0.00,,---,0.00,VWS V14.01,2013-01-24 02:59:00,
2013-01-23 22:00:00,42.8,36.8,30.30,SE,146,0.0,0.0,79,0.00,,---,0.00,VWS V14.01,2013-01-24 03:00:00,
2013-01-23 22:04:00,42.7,37.0,30.30,SE,146,0.0,0.0,80,0.00,,---,0.00,VWS V14.01,2013-01-24 03:04:00,
2013-01-23 22:09:00,42.5,36.5,30.30,SE,146,0.0,0.0,79,0.00,,---,0.00,VWS V14.01,2013-01-24 03:09:00,
2013-01-23 22:14:00,42.3,36.3,30.30,SE,146,0.0,0.0,79,0.00,,---,0.00,VWS V14.01,2013-01-24 03:14:00,
2013-01-23 22:19:00,42.0,36.3,30.30,SE,146,0.0,0.0,80,0.00,,---,0.00,VWS V14.01,2013-01-24 03:19:00,
2013-01-23 22:24:00,41.8,36.4,30.31,SE,146,0.0,0.0,81,0.00,,---,0.00,VWS V14.01,2013-01-24 03:24:00,
2013-01-23 22:29:00,41.6,36.2,30.31,SE,146,0.0,0.0,81,0.00,,---,0.00,VWS V14.01,2013-01-24 03:29:00,
2013-01-23 22:30:00,41.6,36.2,30.31,SE,146,0.0,0.0,81,0.00,,---,0.00,VWS V14.01,2013-01-24 03:30:00,
2013-01-23 22:34:00,41.5,36.1,30.30,SE,146,0.0,0.0,81,0.00,,---,0.00,VWS V14.01,2013-01-24 03:34:00,
2013-01-23 22:39:00,41.3,35.9,30.30,SE,146,0.0,0.0,81,0.00,,---,0.00,VWS V14.01,2013-01-24 03:39:00,
2013-01-23 22:44:00,41.1,36.0,30.30,SE,146,0.0,0.0,82,0.00,,---,0.00,VWS V14.01,2013-01-24 03:44:00,
2013-01-23 22:49:00,41.0,36.2,30.30,SE,146,0.0,0.0,83,0.00,,---,0.00,VWS V14.01,2013-01-24 03:49:00,
2013-01-23 22:54:00,40.9,36.8,30.30,SE,146,0.0,0.0,85,0.00,,---,0.00,VWS V14.01,2013-01-24 03:54:00,
2013-01-23 22:59:00,40.9,36.8,30.30,SE,146,0.0,0.0,85,0.00,,---,0.00,VWS V14.01,2013-01-24 03:59:00,
2013-01-23 23:00:00,40.9,36.8,30.30,SE,146,0.0,0.0,85,0.00,,---,0.00,VWS V14.01,2013-01-24 04:00:00,
2013-01-23 23:04:00,40.9,37.0,30.30,SE,146,0.0,0.0,86,0.00,,---,0.00,VWS V14.01,2013-01-24 04:04:00,
2013-01-23 23:09:00,40.9,36.8,30.30,SE,146,0.0,0.0,85,0.00,,---,0.00,VWS V14.01,2013-01-24 04:09:00,
2013-01-23 23:14:00,40.9,37.0,30.31,SE,146,0.0,0.0,86,0.00,,---,0.00,VWS V14.01,2013-01-24 04:14:00,
2013-01-23 23:19:00,40.7,36.5,30.31,SE,146,0.0,0.0,85,0.00,,---,0.00,VWS V14.01,2013-01-24 04:19:00,
2013-01-23 23:24:00,40.6,36.2,30.31,SE,146,0.0,0.0,84,0.00,,---,0.00,VWS V14.01,2013-01-24 04:24:00,
2013-01-23 23:29:00,40.3,35.9,30.30,SE,146,0.0,0.0,84,0.00,,---,0.00,VWS V14.01,2013-01-24 04:29:00,
2013-01-23 23:30:00,40.3,35.9,30.30,SE,146,0.0,0.0,84,0.00,,---,0.00,VWS V14.01,2013-01-24 04:30:00,
2013-01-23 23:34:00,40.1,35.4,30.30,SE,146,0.0,0.0,83,0.00,,---,0.00,VWS V14.01,2013-01-24 04:34:00,
2013-01-23 23:39:00,39.9,35.8,30.30,SE,146,0.0,0.0,85,0.00,,---,0.00,VWS V14.01,2013-01-24 04:39:00,
2013-01-23 23:44:00,39.7,35.9,30.30,SE,146,0.0,0.0,86,0.00,,---,0.00,VWS V14.01,2013-01-24 04:44:00,
2013-01-23 23:49:00,39.6,35.5,30.29,SE,146,0.0,0.0,85,0.00,,---,0.00,VWS V14.01,2013-01-24 04:49:00,
2013-01-23 23:55:00,39.5,36.0,30.30,SE,146,0.0,0.0,87,0.00,,---,0.00,VWS V14.01,2013-01-24 04:55:00,